QPF
0.00 0.00 0.00 0.00 0.00 0.00 0.00 0.00 0.00 0.02 0.01 0.02 0.00 0.00 0.00 0.00 0.00 0.00 0.02 0.00 0.00 0.00 0.00 0.00 0.00 0.00 0.00 0.00 0.00 0.00 0.00 0.00 0.00 0.00 0.00 0.00 0.00 0.00 0.00 0.00 0.00 0.00 0.00 0.00
0.00 0.00 0.00 0.00 0.00 0.00 0.00 0.00 0.00 0.03 0.06 0.02 0.00 0.00 0.01 0.00 0.00 0.00 0.00 0.00 0.00 0.00 0.00 0.00 0.00 0.00 0.00 0.00 0.00 0.00 0.00 0.00 0.00 0.00 0.00 0.00 0.00 0.00 0.00 0.00 0.00 0.00 0.00 0.00
0.00 0.00 0.00 0.00 0.00 0.00 0.00 0.00 0.00 0.00 0.03 0.03 0.00 0.00 0.00 0.00 0.00 0.00 0.00 0.00 0.00 0.00 0.01 0.00 0.00 0.03 0.01 0.00 0.00 0.00 0.00 0.00 0.00 0.00 0.00 0.00 0.00 0.00 0.00 0.00 0.00 0.00 0.00 0.00
0.00 0.00 0.00 0.00 0.00 0.00 0.00 0.00 0.00 0.00 0.00 0.01 0.00 0.01 0.00 0.00 0.00 0.00 0.00 0.00 0.00 0.00 0.00 0.00 0.00 0.03 0.01 0.01 0.00 0.00 0.00 0.00 0.00 0.00 0.01 0.00 0.00 0.00 0.00 0.00 0.00 0.00 0.00 0.00
0.00 0.00 0.00 0.00 0.00 0.00 0.00 0.00 0.00 0.00 0.00 0.00 0.00 0.01 0.00 0.00 0.00 0.00 0.00 0.00 0.00 0.00 0.00 0.00 0.00 0.00 0.00 0.03 0.02 0.00 0.00 0.00 0.00 0.00 0.00 0.00 0.01 0.01 0.00 0.00 0.00 0.00 0.00 0.00
0.00 0.00 0.00 0.00 0.00 0.00 0.00 0.00 0.00 0.00 0.00 0.01 0.00 0.01 0.00 0.00 0.00 0.00 0.00 0.00 0.00 0.00 0.00 0.00 0.00 0.00 0.02 0.04 0.04 0.03 0.00 0.00 0.00 0.00 0.00 0.00 0.00 0.01 0.00 0.00 0.00 0.00 0.00 0.00
0.00 0.00 0.00 0.00 0.00 0.00 0.00 0.00 0.00 0.00 0.00 0.00 0.00 0.00 0.00 0.00 0.00 0.00 0.00 0.00 0.00 0.02 0.00 0.01 0.00 0.00 0.01 0.02 0.05 0.03 0.00 0.00 0.00 0.00 0.00 0.01 0.03 0.00 0.00 0.01 0.01 0.00 0.00 0.00
0.00 0.00 0.00 0.00 0.00 0.00 0.00 0.00 0.00 0.00 0.00 0.00 0.00 0.00 0.00 0.00 0.00 0.00 0.00 0.01 0.03 0.01 0.01 0.02 0.01 0.01 0.00 0.00 0.03 0.01 0.00 0.00 0.00 0.00 0.00 0.01 0.04 0.00 0.00 0.01 0.03 0.00 0.00 0.00
0.00 0.00 0.00 0.00 0.00 0.00 0.00 0.00 0.00 0.00 0.00 0.00 0.00 0.00 0.00 0.00 0.00 0.00 0.00 0.00 0.00 0.01 0.00 0.00 0.00 0.00 0.02 0.01 0.00 0.02 0.04 0.01 0.00 0.00 0.00 0.00 0.00 0.00 0.01 0.02 0.09 0.07 0.01 0.00
0.00 0.00 0.00 0.00 0.00 0.00 0.00 0.00 0.00 0.00 0.00 0.00 0.00 0.00 0.00 0.00 0.00 0.00 0.00 0.00 0.00 0.01 0.00 0.00 0.00 0.01 0.07 0.02 0.01 0.01 0.04 0.02 0.00 0.00 0.00 0.00 0.00 0.00 0.01 0.06 0.07 0.05 0.02 0.00
0.00 0.00 0.00 0.00 0.00 0.00 0.00 0.00 0.00 0.00 0.00 0.00 0.00 0.00 0.00 0.00 0.00 0.00 0.00 0.00 0.00 0.00 0.00 0.00 0.00 0.04 0.09 0.06 0.06 0.04 0.02 0.05 0.05 0.04 0.03 0.02 0.00 0.00 0.00 0.02 0.04 0.00 0.00 0.01
0.00 0.00 0.00 0.00 0.00 0.00 0.00 0.00 0.00 0.00 0.00 0.00 0.00 0.00 0.02 0.01 0.00 0.00 0.00 0.00 0.00 0.00 0.01 0.02 0.02 0.05 0.09 0.07 0.05 0.09 0.16 0.20 0.16 0.06 0.09 0.04 0.01 0.00 0.00 0.00 0.02 0.00 0.00 0.01
0.00 0.00 0.00 0.00 0.00 0.00 0.00 0.00 0.00 0.00 0.00 0.00 0.00 0.00 0.00 0.00 0.00 0.00 0.00 0.00 0.00 0.00 0.00 0.00 0.01 0.02 0.02 0.03 0.02 0.01 0.11 0.07 0.04 0.03 0.06 0.05 0.02 0.00 0.00 0.00 0.00 0.01 0.01 0.01
0.00 0.00 0.00 0.00 0.00 0.00 0.00 0.00 0.00 0.00 0.00 0.00 0.00 0.00 0.00 0.00 0.00 0.00 0.00 0.00 0.00 0.00 0.00 0.00 0.01 0.01 0.00 0.00 0.01 0.00 0.03 0.05 0.15 0.13 0.07 0.12 0.18 0.15 0.07 0.03 0.01 0.00 0.01 0.04
0.00 0.00 0.00 0.00 0.00 0.00 0.00 0.00 0.00 0.00 0.00 0.00 0.00 0.00 0.00 0.00 0.00 0.00 0.00 0.00 0.00 0.00 0.00 0.00 0.00 0.00 0.00 0.00 0.01 0.01 0.03 0.07 0.13 0.15 0.04 0.03 0.17 0.18 0.16 0.12 0.11 0.08 0.04 0.02
0.00 0.00 0.00 0.00 0.00 0.00 0.00 0.00 0.00 0.00 0.00 0.00 0.00 0.00 0.00 0.00 0.00 0.00 0.00 0.00 0.00 0.00 0.00 0.00 0.00 0.00 0.00 0.00 0.00 0.02 0.03 0.02 0.03 0.06 0.07 0.02 0.12 0.16 0.14 0.09 0.13 0.13 0.07 0.04
0.00 0.00 0.00 0.00 0.00 0.00 0.00 0.00 0.00 0.00 0.00 0.00 0.00 0.00 0.00 0.00 0.00 0.00 0.00 0.00 0.00 0.00 0.00 0.00 0.00 0.00 0.00 0.00 0.00 0.00 0.01 0.00 0.01 0.01 0.02 0.03 0.03 0.04 0.13 0.16 0.16 0.20 0.18 0.10
0.00 0.00 0.00 0.00 0.00 0.00 0.00 0.00 0.00 0.00 0.00 0.00 0.00 0.00 0.00 0.00 0.00 0.00 0.00 0.00 0.00 0.00 0.00 0.00 0.00 0.00 0.00 0.00 0.00 0.00 0.00 0.00 0.00 0.00 0.00 0.00 0.00 0.00 0.00 0.01 0.06 0.13 0.20 0.12
0.00 0.00 0.00 0.00 0.00 0.00 0.00 0.00 0.00 0.00 0.00 0.00 0.00 0.00 0.00 0.00 0.00 0.00 0.00 0.00 0.00 0.00 0.00 0.00 0.00 0.00 0.00 0.00 0.00 0.00 0.00 0.00 0.01 0.01 0.01 0.00 0.00 0.00 0.00 0.00 0.01 0.04 0.10 0.08
0.00 0.00 0.00 0.00 0.00 0.00 0.00 0.00 0.00 0.00 0.00 0.00 0.00 0.00 0.00 0.00 0.00 0.00 0.00 0.00 0.00 0.00 0.00 0.00 0.00 0.00 0.00 0.00 0.00 0.00 0.00 0.00 0.00 0.00 0.00 0.01 0.02 0.02 0.03 0.05 0.05 0.07 0.13 0.19
0.00 0.00 0.00 0.00 0.00 0.00 0.00 0.00 0.00 0.00 0.00 0.00 0.00 0.00 0.00 0.00 0.00 0.00 0.00 0.00 0.00 0.00 0.00 0.00 0.00 0.00 0.00 0.00 0.00 0.00 0.00 0.00 0.00 0.00 0.00 0.00 0.00 0.02 0.02 0.04 0.07 0.06 0.06 0.07
0.00 0.00 0.00 0.00 0.00 0.00 0.00 0.00 0.00 0.00 0.00 0.00 0.00 0.00 0.00 0.00 0.00 0.00 0.00 0.00 0.00 0.00 0.00 0.00 0.00 0.00 0.00 0.00 0.00 0.00 0.00 0.00 0.00 0.00 0.00 0.00 0.00 0.00 0.00 0.00 0.01 0.03 0.04 0.04
0.00 0.00 0.00 0.00 0.00 0.00 0.00 0.00 0.00 0.00 0.00 0.00 0.00 0.00 0.00 0.00 0.00 0.00 0.00 0.00 0.00 0.00 0.00 0.00 0.00 0.00 0.00 0.00 0.00 0.00 0.00 0.00 0.00 0.00 0.00 0.00 0.00 0.00 0.00 0.00 0.00 0.00 0.00 0.00
0.00 0.00 0.00 0.00 0.00 0.00 0.00 0.00 0.00 0.00 0.00 0.00 0.00 0.00 0.00 0.00 0.00 0.00 0.00 0.00 0.00 0.00 0.00 0.00 0.00 0.00 0.00 0.00 0.00 0.00 0.00 0.00 0.00 0.00 0.00 0.00 0.00 0.00 0.00 0.00 0.00 0.00 0.00 0.00
0.00 0.00 0.00 0.00 0.00 0.00 0.00 0.00 0.00 0.00 0.00 0.00 0.00 0.00 0.00 0.00 0.00 0.00 0.00 0.00 0.00 0.00 0.00 0.00 0.00 0.00 0.00 0.00 0.00 0.00 0.00 0.00 0.00 0.00 0.00 0.00 0.00 0.00 0.00 0.00 0.00 0.00 0.00 0.00
0.00 0.00 0.00 0.00 0.00 0.00 0.00 0.00 0.00 0.00 0.00 0.00 0.00 0.00 0.00 0.00 0.00 0.00 0.00 0.00 0.00 0.00 0.00 0.00 0.00 0.00 0.00 0.00 0.00 0.00 0.00 0.00 0.00 0.00 0.00 0.00 0.00 0.00 0.00 0.00 0.00 0.00 0.00 0.00
MSLP
1007.21 1008.32 1008.68 1008.71 1009.27 1009.02 1009.83 1010.69 1011.59 1011.69 1011.12 1011.59 1012.24 1012.60 1012.54 1012.27 1012.18 1011.68 1011.64 1011.89 1012.15 1012.25 1012.68 1012.82 1012.90 1013.35 1013.80 1014.30 1014.89 1014.95 1015.42 1016.02 1016.26 1016.40 1016.57 1016.77 1016.85 1016.91 1016.59 1016.68 1016.62 1016.86 1016.92 1017.00
1007.85 1007.97 1006.99 1007.52 1007.92 1008.52 1009.09 1009.98 1010.65 1010.36 1010.58 1011.55 1012.28 1012.56 1012.52 1012.12 1011.47 1011.21 1011.22 1011.66 1011.58 1012.44 1012.68 1012.91 1013.20 1013.22 1013.69 1014.02 1014.68 1015.09 1015.26 1015.60 1016.00 1016.01 1016.15 1016.29 1016.52 1016.64 1016.29 1016.44 1016.47 1016.77 1016.97 1017.23
1007.48 1006.34 1006.35 1006.91 1007.23 1008.01 1008.63 1009.09 1009.45 1009.79 1010.38 1011.65 1012.35 1012.59 1012.42 1011.76 1011.30 1011.13 1011.29 1011.20 1011.31 1011.91 1012.40 1012.82 1013.10 1013.52 1013.99 1014.15 1014.47 1014.79 1015.06 1015.32 1015.56 1015.88 1016.20 1016.43 1016.62 1016.75 1016.81 1016.82 1016.82 1016.78 1016.76 1017.11
1006.76 1005.50 1005.87 1005.94 1006.12 1006.34 1007.40 1007.23 1007.86 1009.20 1010.31 1011.49 1011.80 1012.47 1011.82 1011.08 1011.16 1010.89 1010.88 1011.32 1011.50 1011.96 1012.21 1012.33 1012.57 1013.07 1013.80 1014.07 1014.60 1014.66 1014.91 1015.19 1015.36 1015.88 1016.28 1016.65 1017.00 1017.29 1017.28 1017.10 1016.90 1016.66 1016.73 1016.98
1005.57 1005.09 1004.95 1004.84 1004.36 1005.04 1005.25 1005.65 1007.08 1008.45 1009.60 1010.54 1011.83 1012.30 1010.45 1010.66 1010.56 1010.55 1010.47 1011.02 1011.28 1011.60 1011.77 1012.13 1012.13 1012.52 1013.20 1013.63 1014.10 1014.77 1015.01 1015.22 1015.40 1015.70 1016.17 1016.80 1017.22 1017.47 1017.26 1017.22 1017.05 1016.92 1016.83 1016.99
1005.28 1004.24 1004.02 1003.34 1003.13 1003.40 1003.93 1005.32 1007.06 1008.78 1010.18 1010.95 1010.46 1011.40 1010.58 1010.23 1008.78 1009.27 1009.58 1010.05 1010.65 1011.36 1011.69 1011.90 1012.24 1012.84 1013.13 1013.56 1013.92 1014.30 1015.09 1015.17 1015.41 1015.62 1016.05 1016.56 1017.02 1017.42 1017.51 1017.54 1017.47 1017.10 1016.93 1016.91
1005.14 1004.14 1003.26 1002.86 1003.00 1003.25 1004.09 1006.34 1008.14 1009.53 1010.52 1010.81 1010.07 1010.17 1008.73 1007.60 1007.56 1007.47 1007.92 1009.12 1010.04 1010.73 1011.39 1011.76 1012.37 1012.79 1013.08 1013.33 1013.75 1014.12 1014.70 1015.01 1015.18 1015.34 1015.58 1016.10 1016.47 1017.04 1017.31 1017.50 1017.40 1017.10 1016.95 1017.03
1006.14 1004.75 1003.10 1002.29 1002.60 1003.26 1004.32 1005.84 1007.78 1009.36 1010.84 1010.55 1009.59 1009.31 1007.54 1006.39 1006.32 1006.92 1007.62 1008.26 1009.32 1010.21 1010.55 1011.30 1011.74 1012.22 1012.60 1012.57 1013.52 1014.02 1014.38 1014.74 1014.82 1014.94 1015.10 1015.54 1015.89 1016.36 1016.78 1016.96 1017.08 1016.80 1016.67 1016.68
1005.59 1004.44 1002.70 1002.15 1001.94 1002.77 1004.07 1005.39 1006.12 1008.64 1010.27 1010.68 1010.78 1009.31 1007.09 1006.67 1006.42 1007.41 1007.97 1008.38 1008.82 1009.56 1010.15 1010.83 1011.20 1011.41 1011.72 1012.11 1012.76 1013.24 1013.88 1014.34 1014.52 1014.48 1014.88 1015.12 1015.48 1015.82 1016.08 1016.31 1016.88 1016.89 1016.65 1016.60
1004.34 1004.60 1002.52 1001.45 1001.59 1002.40 1003.15 1004.37 1006.50 1008.45 1010.38 1011.34 1011.21 1009.38 1008.13 1007.61 1007.34 1007.28 1008.20 1008.53 1008.84 1009.15 1009.86 1010.63 1011.03 1011.33 1011.91 1011.89 1012.33 1013.12 1013.34 1013.65 1013.80 1014.14 1014.49 1014.90 1015.08 1015.32 1015.48 1015.86 1016.47 1016.80 1016.79 1016.52
1003.51 1004.12 1003.03 1002.23 1002.40 1002.47 1003.12 1004.11 1005.76 1007.37 1009.10 1010.72 1011.05 1009.42 1006.93 1007.05 1006.98 1007.30 1007.83 1008.21 1008.46 1008.59 1008.97 1009.74 1010.48 1011.12 1011.28 1011.31 1011.99 1012.51 1013.01 1013.50 1013.70 1013.71 1014.35 1014.66 1014.89 1014.94 1015.37 1015.57 1015.80 1016.21 1016.51 1016.52
1002.07 1003.67 1003.93 1002.92 1001.81 1001.69 1002.40 1003.46 1005.15 1007.24 1008.97 1009.78 1009.58 1008.49 1006.67 1006.23 1006.70 1007.43 1007.57 1007.74 1008.21 1008.48 1009.01 1009.61 1010.22 1011.01 1011.78 1012.04 1011.96 1012.64 1013.24 1013.56 1013.69 1013.59 1013.86 1014.08 1014.56 1014.68 1014.92 1015.18 1015.35 1015.66 1015.94 1016.17
1001.45 1002.93 1003.74 1003.45 1002.79 1002.42 1002.96 1003.77 1004.75 1005.85 1007.40 1008.93 1009.31 1008.34 1006.96 1006.57 1007.05 1007.08 1007.10 1007.62 1007.78 1008.05 1008.76 1008.95 1009.65 1010.45 1010.91 1011.76 1011.76 1012.38 1012.78 1013.36 1013.24 1013.64 1014.17 1014.14 1014.03 1014.08 1014.38 1014.65 1014.85 1015.05 1015.43 1015.58
1000.86 1002.38 1002.91 1003.46 1003.30 1003.04 1003.06 1003.31 1004.35 1005.43 1007.04 1007.98 1007.81 1007.81 1007.75 1007.06 1006.72 1007.07 1007.25 1007.16 1007.34 1007.73 1008.21 1008.81 1009.46 1010.04 1010.47 1011.11 1011.46 1011.76 1012.26 1012.66 1013.08 1013.51 1014.14 1014.36 1014.49 1014.36 1013.96 1014.24 1014.57 1014.82 1014.87 1015.12
1001.36 1002.68 1002.55 1002.63 1002.68 1002.61 1002.59 1002.81 1003.20 1004.65 1005.40 1006.44 1006.45 1006.59 1006.43 1006.24 1006.57 1006.17 1006.53 1007.05 1007.40 1008.01 1008.70 1009.05 1009.65 1010.16 1010.41 1010.88 1011.38 1011.61 1012.12 1012.49 1012.79 1013.15 1013.77 1014.08 1014.17 1014.45 1014.12 1014.02 1014.37 1014.60 1014.68 1014.61
1002.02 1002.80 1002.86 1003.09 1002.97 1002.72 1002.74 1002.44 1002.62 1003.52 1003.90 1004.79 1005.32 1005.79 1005.06 1005.05 1005.64 1006.24 1006.22 1006.75 1007.35 1007.66 1008.32 1009.22 1009.85 1010.07 1010.32 1010.44 1010.99 1011.44 1011.76 1012.24 1012.80 1013.28 1013.45 1013.63 1013.60 1014.10 1014.02 1014.08 1014.39 1014.11 1014.27 1014.52
1002.90 1003.67 1003.81 1004.08 1003.36 1003.34 1003.12 1002.42 1002.18 1002.35 1003.40 1004.22 1004.74 1004.34 1004.62 1005.36 1005.61 1005.85 1006.20 1006.47 1006.99 1007.39 1008.09 1008.84 1009.24 1009.59 1010.15 1010.41 1010.61 1011.23 1011.65 1012.16 1012.74 1013.05 1013.08 1013.05 1013.01 1013.13 1013.13 1013.21 1013.75 1013.92 1013.74 1014.10
1002.89 1004.06 1004.31 1004.68 1004.36 1003.96 1002.50 1001.49 1001.56 1002.26 1002.22 1002.23 1002.68 1002.99 1003.72 1004.46 1005.17 1005.43 1005.56 1006.07 1006.83 1007.26 1007.90 1008.58 1008.91 1009.29 1009.64 1010.12 1010.61 1010.98 1011.48 1011.95 1012.31 1012.51 1012.42 1012.43 1012.56 1012.51 1012.40 1012.94 1013.09 1013.15 1013.12 1013.47
1002.63 1003.73 1004.73 1005.22 1005.16 1004.14 1002.75 1001.75 1001.48 1001.45 1001.80 1001.83 1002.38 1003.06 1003.87 1004.54 1005.06 1005.64 1005.52 1005.93 1006.54 1007.09 1007.90 1008.49 1008.77 1009.05 1009.50 1009.93 1010.47 1010.91 1011.45 1011.85 1012.10 1012.21 1012.21 1012.24 1012.38 1012.51 1012.68 1012.83 1012.60 1012.75 1013.17 1012.75
1002.96 1003.85 1004.80 1005.85 1005.04 1004.57 1002.85 1001.31 1000.60 1000.96 1001.53 1001.79 1002.04 1003.21 1003.91 1004.34 1005.73 1006.35 1006.06 1006.02 1006.59 1007.07 1007.72 1008.33 1008.82 1009.20 1009.45 1009.80 1010.10 1010.71 1011.24 1011.55 1011.83 1011.86 1011.86 1011.84 1011.94 1012.15 1012.41 1012.12 1011.77 1011.89 1011.53 1012.02
1004.03 1004.88 1005.17 1005.60 1004.92 1003.38 1002.22 1001.24 1000.99 1001.86 1002.18 1001.71 1001.70 1002.58 1003.54 1004.39 1004.76 1005.45 1006.15 1006.51 1006.80 1007.39 1007.99 1008.39 1008.75 1009.10 1009.37 1009.65 1009.99 1010.63 1010.91 1011.11 1010.95 1011.29 1011.38 1011.52 1011.45 1011.39 1011.26 1011.26 1011.21 1010.97 1011.11 1011.29
1004.85 1005.50 1005.42 1005.07 1004.51 1003.38 1001.35 1001.42 1001.80 1002.00 1001.34 1000.95 1001.63 1002.25 1003.21 1003.77 1005.00 1005.71 1006.27 1006.82 1007.22 1007.77 1008.20 1008.53 1008.91 1009.28 1009.45 1009.60 1009.90 1010.47 1010.73 1010.55 1010.70 1010.90 1011.11 1011.15 1011.17 1011.07 1010.97 1011.16 1011.12 1011.01 1011.00 1011.21
1005.90 1006.27 1005.32 1004.59 1003.66 1002.27 1001.00 1000.95 1001.11 1001.41 1001.59 1001.36 1001.52 1002.21 1002.97 1004.24 1005.26 1005.81 1006.60 1007.12 1007.54 1007.79 1008.27 1008.69 1009.09 1009.46 1009.48 1009.70 1009.84 1010.16 1010.16 1010.42 1010.60 1010.82 1010.95 1011.01 1010.81 1010.93 1011.19 1011.43 1011.61 1011.63 1011.70 1011.79
1006.75 1006.37 1006.06 1005.29 1004.15 1002.81 1001.17 1000.31 1000.43 1001.03 1001.53 1001.53 1001.79 1002.55 1003.10 1004.16 1004.99 1005.87 1006.62 1007.35 1007.90 1008.11 1008.48 1008.82 1009.13 1009.51 1009.74 1009.68 1009.72 1009.98 1010.32 1010.42 1010.64 1010.74 1010.76 1010.74 1010.96 1011.20 1011.57 1011.95 1012.26 1012.47 1012.54 1012.41
1007.84 1007.34 1007.17 1006.28 1005.40 1003.57 1002.28 1001.48 1000.89 1000.46 1001.44 1002.34 1001.97 1002.35 1003.10 1003.91 1004.95 1005.57 1006.63 1007.41 1007.87 1008.22 1008.61 1008.92 1009.27 1009.58 1009.76 1009.82 1009.88 1010.01 1010.16 1010.28 1010.50 1010.57 1010.65 1010.63 1010.72 1011.20 1011.84 1012.53 1012.83 1012.77 1012.71 1012.71
1007.78 1007.56 1007.73 1007.70 1007.54 1006.93 1005.14 1003.44 1002.26 1001.18 1001.17 1002.20 1001.99 1002.89 1003.28 1003.59 1004.67 1005.57 1006.68 1007.30 1007.73 1008.24 1008.63 1009.07 1009.36 1009.69 1009.92 1009.91 1009.99 1010.03 1010.05 1010.18 1010.26 1010.45 1010.50 1010.48 1010.66 1010.93 1011.43 1012.13 1012.75 1012.76 1012.63 1012.48
Thickness
5778 5754 5742 5758 5762 5771 5762 5750 5740 5744 5763 5751 5743 5744 5751 5759 5758 5765 5763 5761 5761 5762 5766 5768 5773 5773 5771 5767 5763 5765 5761 5758 5759 5757 5757 5757 5758 5760 5766 5768 5769 5766 5768 5770
5759 5743 5777 5780 5781 5774 5765 5753 5746 5746 5766 5754 5744 5742 5748 5758 5765 5771 5768 5764 5767 5762 5763 5766 5769 5772 5771 5767 5763 5763 5764 5765 5763 5764 5764 5762 5761 5763 5770 5771 5773 5769 5769 5768
5746 5770 5788 5779 5771 5764 5756 5751 5753 5752 5765 5756 5745 5737 5742 5759 5766 5770 5769 5774 5773 5769 5767 5764 5768 5768 5768 5768 5764 5763 5764 5767 5767 5765 5763 5762 5761 5762 5763 5767 5769 5769 5770 5769
5759 5787 5780 5773 5770 5774 5747 5780 5778 5763 5747 5722 5752 5715 5740 5756 5760 5767 5770 5767 5768 5768 5768 5771 5772 5770 5769 5770 5767 5766 5766 5768 5768 5764 5760 5757 5751 5750 5756 5761 5767 5772 5772 5770
5766 5778 5776 5770 5784 5786 5776 5797 5783 5769 5751 5747 5735 5717 5749 5758 5755 5757 5768 5765 5767 5768 5770 5768 5771 5772 5773 5773 5770 5766 5765 5765 5765 5764 5760 5754 5749 5749 5755 5758 5764 5769 5773 5772
5774 5799 5793 5789 5804 5805 5813 5795 5771 5757 5743 5714 5744 5732 5739 5743 5769 5769 5773 5773 5770 5767 5769 5771 5772 5771 5770 5770 5769 5769 5764 5763 5763 5761 5758 5755 5751 5748 5750 5753 5757 5765 5771 5775
5767 5780 5797 5807 5788 5795 5796 5752 5713 5725 5715 5711 5746 5739 5755 5783 5785 5787 5783 5778 5773 5771 5769 5770 5768 5764 5764 5768 5769 5767 5766 5763 5765 5764 5762 5759 5757 5754 5751 5752 5757 5765 5768 5770
5732 5731 5784 5808 5793 5779 5777 5758 5722 5708 5700 5723 5754 5737 5758 5795 5801 5798 5788 5785 5778 5771 5776 5770 5770 5767 5765 5769 5767 5762 5765 5762 5765 5768 5767 5764 5762 5759 5757 5757 5760 5766 5769 5772
5735 5742 5795 5802 5811 5800 5781 5759 5778 5731 5734 5721 5719 5747 5783 5791 5795 5787 5778 5778 5778 5776 5775 5771 5771 5774 5773 5772 5770 5768 5767 5764 5765 5769 5767 5766 5764 5765 5764 5764 5760 5763 5769 5770
5767 5740 5789 5806 5814 5808 5790 5793 5751 5733 5708 5707 5707 5729 5734 5762 5773 5783 5776 5773 5773 5774 5774 5772 5769 5770 5771 5774 5773 5769 5769 5767 5770 5769 5769 5765 5765 5766 5768 5767 5762 5759 5763 5767
5778 5761 5772 5795 5783 5778 5781 5772 5767 5755 5732 5699 5692 5719 5770 5773 5777 5779 5775 5774 5774 5777 5781 5779 5776 5773 5776 5776 5774 5773 5769 5766 5765 5769 5767 5765 5762 5764 5765 5766 5767 5764 5763 5764
5793 5758 5741 5767 5801 5808 5796 5782 5764 5741 5740 5722 5719 5730 5781 5784 5781 5780 5779 5780 5779 5782 5779 5779 5779 5774 5767 5766 5771 5769 5764 5762 5761 5765 5765 5763 5762 5765 5764 5765 5768 5767 5766 5766
5792 5758 5732 5749 5771 5791 5781 5784 5777 5764 5750 5725 5715 5726 5779 5782 5778 5786 5782 5780 5783 5784 5780 5780 5779 5774 5774 5769 5772 5770 5767 5758 5754 5758 5757 5759 5762 5764 5764 5765 5768 5771 5769 5768
5797 5759 5755 5732 5752 5771 5771 5781 5774 5758 5735 5729 5733 5743 5753 5770 5780 5782 5783 5788 5788 5786 5782 5776 5773 5773 5774 5773 5771 5771 5765 5762 5758 5754 5750 5751 5752 5756 5761 5763 5763 5765 5770 5767
5782 5755 5772 5771 5776 5778 5778 5780 5787 5766 5757 5746 5753 5753 5760 5777 5778 5788 5790 5787 5783 5777 5773 5772 5769 5769 5771 5769 5768 5768 5764 5761 5759 5755 5750 5749 5749 5746 5754 5761 5763 5764 5766 5768
5767 5758 5770 5765 5769 5774 5765 5778 5784 5777 5777 5767 5759 5757 5780 5793 5793 5786 5793 5788 5780 5781 5779 5768 5765 5767 5768 5768 5764 5763 5763 5759 5755 5750 5749 5747 5747 5745 5748 5752 5755 5760 5763 5765
5753 5744 5738 5736 5758 5753 5737 5764 5776 5774 5769 5762 5746 5770 5780 5778 5783 5786 5784 5789 5785 5785 5780 5773 5769 5765 5762 5765 5767 5761 5758 5755 5749 5746 5748 5748 5749 5748 5752 5753 5752 5754 5757 5757
5745 5739 5730 5725 5737 5707 5753 5784 5787 5774 5781 5786 5785 5786 5784 5784 5782 5786 5789 5787 5783 5783 5780 5774 5773 5768 5767 5763 5761 5759 5757 5754 5751 5748 5750 5751 5750 5750 5751 5748 5749 5753 5754 5752
5751 5733 5720 5713 5705 5732 5753 5771 5773 5773 5770 5791 5781 5782 5781 5781 5781 5779 5787 5787 5780 5778 5773 5769 5768 5766 5762 5761 5757 5754 5750 5748 5748 5748 5749 5749 5748 5744 5742 5743 5745 5750 5747 5753
5735 5733 5723 5702 5706 5702 5742 5777 5794 5787 5747 5785 5787 5778 5776 5777 5746 5752 5776 5781 5777 5775 5772 5767 5764 5761 5759 5757 5758 5751 5743 5741 5742 5745 5747 5747 5745 5740 5737 5742 5748 5750 5744 5750
5707 5705 5704 5697 5703 5723 5759 5776 5784 5728 5741 5785 5791 5784 5774 5766 5770 5772 5773 5773 5774 5770 5765 5763 5760 5754 5751 5750 5747 5743 5742 5740 5743 5742 5743 5743 5745 5744 5744 5744 5745 5750 5750 5751
5696 5689 5694 5695 5694 5700 5771 5769 5752 5757 5778 5792 5789 5786 5778 5777 5773 5772 5771 5767 5767 5762 5759 5758 5752 5749 5748 5746 5743 5737 5735 5739 5741 5740 5739 5740 5740 5741 5743 5742 5741 5744 5745 5745
5683 5686 5699 5704 5702 5747 5769 5766 5769 5772 5768 5780 5781 5783 5782 5773 5769 5768 5761 5759 5758 5757 5753 5752 5747 5743 5742 5739 5736 5732 5734 5734 5735 5734 5733 5734 5737 5736 5734 5733 5732 5733 5734 5735
5675 5686 5683 5701 5723 5737 5758 5775 5779 5777 5770 5778 5782 5780 5779 5771 5768 5763 5758 5752 5750 5749 5747 5745 5740 5735 5733 5734 5731 5729 5727 5728 5727 5726 5729 5730 5729 5726 5724 5721 5719 5720 5720 5723
5661 5672 5672 5684 5702 5721 5746 5759 5768 5778 5771 5765 5777 5778 5774 5772 5766 5763 5754 5748 5746 5744 5741 5738 5733 5729 5727 5727 5724 5722 5721 5722 5720 5721 5721 5723 5724 5721 5712 5707 5707 5709 5710 5711
5657 5660 5659 5662 5678 5685 5704 5730 5748 5761 5765 5763 5769 5763 5768 5772 5764 5760 5749 5746 5743 5739 5736 5730 5727 5724 5721 5720 5718 5716 5715 5715 5714 5714 5715 5717 5718 5716 5713 5706 5701 5700 5701 5703